アトラス彗星

C/2018 A3 ( ATLAS )

English version
Home page
Updated on May 21, 2018

---------------------------------------------------------------------

・ プロフィール

発見日 2018年1月10日
発見光度 18.7等
発見者 Asteroid Terrestrial-impact Last Alert System (ATLAS) search program

・ 写真集

・ 軌道要素

Epoch 2018 Dec. 28.0 TT = JDT 2458480.5
T 2019 Jan. 12.81445 TT                                 MPCW
q   3.2768565            (2000.0)            P               Q
z  +0.0019091      Peri.   86.42001     -0.24789425     +0.95548435
 +/-0.0000394      Node   194.28072     +0.40378701     +0.25202296
e   0.9937443      Incl.  139.56325     +0.88062733     +0.15340822
From 279 observations 2018 Jan. 10-Mar. 25, mean residual 0".4.

・ 星図

・ 光度変化

        m1 = 8.0 + 5 logΔ + 10.0 log r

---------------------------------------------------------------------

軌道要素はM.P.E.C. 2018-F152に掲載されたものです。
星図はステラナビゲータ Ver.10 (アストロアーツ) で作成したものです。
光度グラフはComet for Windowsで作成したものです。

---------------------------------------------------------------------

Copyright(C) Seiichi Yoshida (comet@aerith.net). All rights reserved.